When you browse on this site, cookies collect data to enhance your experience and personalize the content and advertising you see.
Visit our Privacy Policy to learn more. By continuing to use the site, you agree to this use of cookies and data.
  • In Lithuania
  • List of Countries
  • For 7 days
  • Water Temperature
  • Satellite Maps
  • Weather Map
  • Weather Widgets
  • user-avatar
    Login

    Hourly Weather Ondjiwa

    Today, 18 December, Tuesday

    Time Temperature Precipitation Wind Pressure Humidity
    00:00 +30°C° 0 mm 2 mps 667 mmHg 31%
    01:00 +30°C° 0 mm 4 mps 667 mmHg 32%
    02:00 +29°C° 0 mm 3 mps 667 mmHg 34%
    03:00 +28°C° 0 mm 3 mps 667 mmHg 37%
    04:00 +27°C° 0 mm 3 mps 667 mmHg 40%
    05:00 +27°C° 0.1 mm 3 mps 667 mmHg 39%
    06:00 +27°C° 0.1 mm 3 mps 668 mmHg 39%
    07:00 +28°C° 0 mm 3 mps 668 mmHg 40%
    08:00 +29°C° 0.1 mm 3 mps 669 mmHg 35%
    09:00 +31°C° 0.1 mm 3 mps 669 mmHg 31%
    10:00 +34°C° 0.1 mm 3 mps 669 mmHg 27%
    11:00 +36°C° 0 mm 3 mps 669 mmHg 24%
    12:00 +37°C° 0 mm 3 mps 668 mmHg 22%
    13:00 +39°C° 0 mm 3 mps 668 mmHg 19%
    14:00 +38°C° 0 mm 3 mps 667 mmHg 19%
    15:00 +38°C° 0 mm 2 mps 667 mmHg 19%
    16:00 +38°C° 0 mm 2 mps 666 mmHg 19%
    17:00 +37°C° 0 mm 2 mps 666 mmHg 21%
    18:00 +34°C° 0 mm 1 mps 666 mmHg 22%
    19:00 +33°C° 0 mm 1 mps 666 mmHg 24%
    20:00 +32°C° 0 mm 2 mps 666 mmHg 25%
    21:00 +32°C° 0 mm 2 mps 667 mmHg 26%
    22:00 +31°C° 0 mm 3 mps 667 mmHg 28%
    23:00 +32°C° 0.1 mm 4 mps 667 mmHg 29%

    Tomorrow, 19 December, Wednesday

    Time Temperature Precipitation Wind Pressure Humidity
    00:00 +30°C° 0.1 mm 4 mps 667 mmHg 31%
    01:00 +29°C° 0.1 mm 5 mps 667 mmHg 33%
    02:00 +28°C° 0 mm 4 mps 667 mmHg 35%
    03:00 +27°C° 0 mm 3 mps 667 mmHg 38%
    04:00 +26°C° 0 mm 3 mps 666 mmHg 40%
    05:00 +26°C° 0 mm 3 mps 667 mmHg 38%
    06:00 +27°C° 0 mm 3 mps 667 mmHg 36%
    07:00 +27°C° 0 mm 3 mps 668 mmHg 34%
    08:00 +29°C° 0 mm 3 mps 668 mmHg 31%
    09:00 +31°C° 0 mm 3 mps 668 mmHg 28%
    10:00 +34°C° 0 mm 3 mps 668 mmHg 24%
    11:00 +36°C° 0 mm 3 mps 668 mmHg 22%
    12:00 +38°C° 0 mm 3 mps 667 mmHg 20%
    13:00 +39°C° 0 mm 3 mps 667 mmHg 18%
    14:00 +39°C° 0 mm 3 mps 666 mmHg 18%
    15:00 +39°C° 0 mm 3 mps 666 mmHg 18%
    16:00 +39°C° 0 mm 3 mps 665 mmHg 18%
    17:00 +37°C° 0 mm 2 mps 665 mmHg 20%
    18:00 +36°C° 0 mm 2 mps 665 mmHg 22%
    19:00 +33°C° 0 mm 1 mps 665 mmHg 25%
    20:00 +32°C° 0.1 mm 2 mps 665 mmHg 26%
    21:00 +31°C° 0.1 mm 2 mps 666 mmHg 27%
    22:00 +30°C° 0.1 mm 3 mps 666 mmHg 29%
    23:00 +29°C° 0 mm 3 mps 666 mmHg 28%

    Day after tomorrow, 20 December, Thursday

    Time Temperature Precipitation Wind Pressure Humidity
    00:00 +28°C° 0 mm 3 mps 666 mmHg 27%
    01:00 +28°C° 0 mm 4 mps 666 mmHg 26%
    02:00 +27°C° 0 mm 3 mps 665 mmHg 27%
    03:00 +26°C° 0 mm 3 mps 665 mmHg 28%
    04:00 +25°C° 0 mm 2 mps 665 mmHg 28%
    05:00 +26°C° 0 mm 3 mps 666 mmHg 27%
    06:00 +27°C° 0 mm 3 mps 667 mmHg 25%
    07:00 +27°C° 0 mm 4 mps 667 mmHg 23%
    08:00 +30°C° 0 mm 4 mps 668 mmHg 19%
    09:00 +33°C° 0 mm 5 mps 668 mmHg 15%
    10:00 +36°C° 0 mm 5 mps 669 mmHg 11%
    11:00 +37°C° 0 mm 5 mps 668 mmHg 10%
    12:00 +40°C° 0 mm 6 mps 668 mmHg 10%
    13:00 +41°C° 0 mm 6 mps 667 mmHg 9%
    14:00 +41°C° 0 mm 5 mps 666 mmHg 10%
    15:00 +41°C° 0 mm 5 mps 666 mmHg 10%
    16:00 +41°C° 0 mm 5 mps 665 mmHg 10%
    17:00 +38°C° 0 mm 4 mps 665 mmHg 12%
    18:00 +36°C° 0 mm 3 mps 665 mmHg 13%
    19:00 +34°C° 0 mm 3 mps 665 mmHg 14%
    20:00 +33°C° 0 mm 3 mps 666 mmHg 15%
    21:00 +32°C° 0 mm 4 mps 666 mmHg 15%
    22:00 +32°C° 0 mm 4 mps 667 mmHg 16%
    23:00 +30°C° 0 mm 4 mps 666 mmHg 16%

    21 December, Friday

    Time Temperature Precipitation Wind Pressure Humidity
    00:00 +29°C° 0 mm 4 mps 666 mmHg 17%
    01:00 +28°C° 0 mm 4 mps 666 mmHg 17%
    02:00 +27°C° 0 mm 3 mps 666 mmHg 18%
    03:00 +26°C° 0 mm 3 mps 666 mmHg 19%
    04:00 +25°C° 0 mm 3 mps 666 mmHg 20%
    05:00 +26°C° 0 mm 3 mps 666 mmHg 19%
    06:00 +27°C° 0 mm 3 mps 667 mmHg 18%
    07:00 +28°C° 0 mm 3 mps 668 mmHg 17%
    08:00 +30°C° 0 mm 3 mps 668 mmHg 15%
    09:00 +33°C° 0 mm 4 mps 668 mmHg 12%
    10:00 +35°C° 0 mm 4 mps 668 mmHg 9%
    11:00 +37°C° 0 mm 4 mps 668 mmHg 10%
    12:00 +38°C° 0 mm 4 mps 667 mmHg 10%
    13:00 +41°C° 0 mm 4 mps 667 mmHg 10%
    14:00 +40°C° 0 mm 3 mps 666 mmHg 11%
    15:00 +40°C° 0 mm 3 mps 665 mmHg 11%
    16:00 +40°C° 0 mm 3 mps 665 mmHg 11%
    17:00 +38°C° 0 mm 3 mps 665 mmHg 13%
    18:00 +37°C° 0 mm 2 mps 665 mmHg 15%
    19:00 +35°C° 0 mm 2 mps 664 mmHg 17%
    20:00 +34°C° 0 mm 2 mps 665 mmHg 18%
    21:00 +33°C° 0 mm 3 mps 665 mmHg 20%
    22:00 +33°C° 0 mm 4 mps 666 mmHg 21%
    23:00 +32°C° 0 mm 4 mps 666 mmHg 23%

    22 December, Saturday

    Time Temperature Precipitation Wind Pressure Humidity
    00:00 +30°C° 0 mm 3 mps 665 mmHg 24%
    01:00 +29°C° 0 mm 3 mps 665 mmHg 25%
    02:00 +28°C° 0 mm 3 mps 665 mmHg 26%
    03:00 +27°C° 0 mm 3 mps 665 mmHg 27%
    04:00 +26°C° 0 mm 3 mps 665 mmHg 28%
    05:00 +27°C° 0.1 mm 3 mps 666 mmHg 28%
    06:00 +27°C° 0.1 mm 3 mps 666 mmHg 29%
    07:00 +27°C° 0.1 mm 3 mps 667 mmHg 30%
    08:00 +30°C° 0 mm 3 mps 667 mmHg 28%
    09:00 +33°C° 0 mm 3 mps 667 mmHg 26%
    10:00 +35°C° 0 mm 3 mps 668 mmHg 24%
    11:00 +37°C° 0 mm 2 mps 667 mmHg 22%
    12:00 +38°C° 0 mm 2 mps 666 mmHg 20%
    13:00 +40°C° 0 mm 2 mps 666 mmHg 18%
    14:00 +39°C° 0 mm 2 mps 665 mmHg 20%
    15:00 +38°C° 0 mm 2 mps 664 mmHg 21%
    16:00 +37°C° 0 mm 2 mps 664 mmHg 22%
    17:00 +36°C° 0.2 mm 2 mps 664 mmHg 26%
    18:00 +35°C° 0.2 mm 2 mps 664 mmHg 29%
    19:00 +32°C° 0.2 mm 2 mps 664 mmHg 32%
    20:00 +31°C° 0.2 mm 2 mps 664 mmHg 34%
    21:00 +30°C° 0.2 mm 2 mps 664 mmHg 37%
    22:00 +29°C° 0.2 mm 2 mps 665 mmHg 40%
    23:00 +28°C° 0.7 mm 2 mps 665 mmHg 44%

    23 December, Sunday

    Time Temperature Precipitation Wind Pressure Humidity
    00:00 +27°C° 0.7 mm 2 mps 664 mmHg 49%
    01:00 +25°C° 0.7 mm 2 mps 664 mmHg 53%
    02:00 +25°C° 0.2 mm 2 mps 664 mmHg 54%
    03:00 +24°C° 0.2 mm 1 mps 664 mmHg 55%
    04:00 +24°C° 0.2 mm 1 mps 664 mmHg 55%
    05:00 +25°C° 0 mm 1 mps 665 mmHg 53%
    06:00 +25°C° 0 mm 1 mps 665 mmHg 50%
    07:00 +26°C° 0 mm 2 mps 666 mmHg 48%
    08:00 +29°C° 0 mm 2 mps 666 mmHg 42%
    09:00 +31°C° 0 mm 2 mps 667 mmHg 37%
    10:00 +35°C° 0 mm 2 mps 667 mmHg 31%
    11:00 +36°C° 0 mm 2 mps 667 mmHg 28%
    12:00 +37°C° 0 mm 3 mps 666 mmHg 25%
    13:00 +38°C° 0 mm 3 mps 666 mmHg 22%
    14:00 +38°C° 0 mm 3 mps 665 mmHg 22%
    15:00 +37°C° 0 mm 3 mps 665 mmHg 23%
    16:00 +37°C° 0 mm 3 mps 664 mmHg 23%
    17:00 +36°C° 0.1 mm 3 mps 664 mmHg 26%
    18:00 +35°C° 0.1 mm 2 mps 664 mmHg 28%
    19:00 +34°C° 0.1 mm 2 mps 664 mmHg 31%
    20:00 +32°C° 0 mm 2 mps 665 mmHg 34%
    21:00 +31°C° 0 mm 2 mps 665 mmHg 38%
    22:00 +30°C° 0 mm 2 mps 665 mmHg 41%
    23:00 +29°C° 0 mm 2 mps 665 mmHg 42%
    Show more